Wind_Speed
9 7 7 7 9 9 9 8 9 13 12 12 14 15 10 10 8 11 10 15 21 20 20 19 22 22 22 23 22 22 20 20 20 19 17 16 15 14 15 14 13 13 13
9 8 9 8 7 7 6 9 9 10 10 12 14 16 14 14 14 9 11 14 14 16 17 19 22 21 21 23 23 21 21 21 20 19 18 17 16 14 14 14 13 13 13
10 8 8 7 6 4 5 8 9 11 12 14 15 12 11 10 12 9 6 8 9 13 14 13 21 12 18 22 24 23 22 20 20 21 21 20 18 16 14 14 13 12 12
12 13 10 9 6 6 7 6 4 8 8 9 7 6 4 7 4 7 8 8 9 12 13 14 15 13 14 19 23 25 24 22 21 21 20 20 18 17 16 16 14 13 12
15 14 11 8 3 8 6 4 5 8 9 10 8 8 6 5 4 1 6 7 10 14 15 15 7 5 8 15 23 24 25 25 24 19 19 18 18 18 18 16 16 14 14
16 13 11 8 5 3 4 4 6 7 8 10 8 9 6 4 4 4 6 7 9 11 13 14 6 5 9 17 17 22 23 24 25 23 19 19 20 20 19 18 18 17 16
17 14 11 9 6 6 4 4 6 7 6 8 9 9 7 6 7 7 7 8 9 11 11 11 7 5 8 7 20 19 21 22 26 25 22 20 19 19 18 18 18 18 19
18 15 13 9 7 6 8 7 6 5 4 7 5 3 4 5 9 9 11 14 12 8 8 9 9 6 7 7 10 17 22 22 23 24 23 25 21 18 18 18 18 19 19
20 16 15 13 10 9 8 5 6 4 4 3 5 3 2 1 5 5 9 16 17 8 6 8 10 10 8 8 11 13 16 22 23 21 23 24 25 25 25 21 20 19 19
21 19 15 14 14 11 7 7 4 5 6 5 3 2 2 1 1 4 5 15 14 14 6 5 8 10 9 8 6 7 10 13 21 21 23 22 22 23 23 27 26 24 22
24 20 19 16 15 14 11 10 6 8 6 6 5 3 4 2 1 1 3 8 13 12 8 2 3 7 9 11 11 7 3 6 12 18 20 22 23 23 24 24 25 29 28
27 24 21 20 18 15 15 12 10 7 8 7 5 5 4 2 3 2 2 3 4 7 12 3 1 1 5 7 6 5 5 3 3 10 14 17 20 22 23 24 25 28 31
26 25 25 23 22 20 17 13 12 11 9 9 8 8 7 7 6 5 3 2 1 2 5 9 3 3 2 1 1 2 3 2 2 4 8 12 15 18 21 21 22 24 29
24 25 27 27 23 20 20 18 14 13 12 11 10 10 9 8 6 7 5 2 2 3 3 5 10 7 2 2 3 7 8 7 4 6 8 9 11 14 17 20 21 24 25
18 24 26 27 25 23 20 20 19 16 15 13 12 11 10 9 8 6 7 5 4 1 2 2 3 4 1 1 2 3 3 4 5 6 7 9 11 12 15 18 21 24 26
17 16 23 25 26 25 24 21 22 18 18 16 14 12 12 10 9 8 9 6 9 8 3 6 2 1 1 2 3 4 1 2 3 5 5 6 8 10 12 16 20 23 28
26 22 21 23 24 24 25 28 26 23 21 18 17 16 16 13 12 11 10 10 8 10 6 4 4 2 3 5 6 4 3 4 4 5 5 2 3 6 10 13 15 18 22
31 29 26 24 23 23 24 26 29 28 25 23 21 19 16 14 15 13 12 11 10 8 6 5 6 3 4 2 3 4 4 3 3 3 4 4 8 13 15 17 18 18 16
32 32 31 30 28 26 24 23 25 29 27 27 25 23 22 20 21 18 16 15 12 9 7 6 6 5 4 3 2 3 5 7 6 9 13 15 17 20 18 22 24 20 23
38 36 34 33 31 28 28 27 27 30 30 30 29 28 25 24 24 20 19 19 15 14 11 9 8 7 5 5 7 7 10 9 12 13 15 20 22 23 22 26 22 18 17
43 44 41 40 38 34 32 32 32 34 34 34 32 31 30 28 27 24 23 22 21 20 17 13 9 7 7 7 7 7 14 14 15 17 18 18 20 21 27 23 16 15 10
41 41 41 39 38 38 38 36 35 35 36 36 37 36 34 32 29 25 25 23 22 22 20 14 12 8 9 7 6 10 13 14 5 14 15 19 23 25 21 19 15 11 12
38 41 42 41 40 45 43 41 40 36 37 38 40 39 35 34 31 26 26 22 15 12 11 14 13 10 5 5 10 16 18 16 14 23 19 21 21 23 18 15 15 16 18
36 38 38 39 40 42 44 45 43 38 38 40 38 37 36 34 31 26 23 22 18 13 8 7 5 6 7 7 6 8 10 9 10 9 10 6 12 17 16 19 22 23 21
34 36 37 38 39 43 43 43 38 40 38 42 40 37 35 32 29 22 21 19 17 13 8 3 2 4 3 3 1 3 5 8 4 7 13 11 9 16 24 31 29 22 22
35 33 35 38 39 43 38 37 36 35 29 30 20 16 15 12 1 14 21 21 17 7 7 5 9 8 4 1 2 3 2 4 7 6 3 10 13 18 10 16 15 16 25
Wind_Direction
200 219 246 246 251 258 266 285 296 293 293 291 278 280 288 275 310 281 263 261 262 255 245 241 223 216 213 203 196 194 194 190 190 190 192 193 195 195 196 195 195 195 197
218 238 245 260 246 248 268 282 296 305 302 285 288 281 286 283 290 278 269 285 264 259 253 244 237 222 211 198 198 196 193 191 192 190 194 197 195 197 194 193 199 199 201
220 223 195 187 206 236 262 279 287 309 308 289 285 304 287 288 289 258 282 260 262 267 268 273 254 216 214 202 202 205 205 199 193 193 194 197 196 195 198 194 193 195 201
222 197 191 191 205 231 270 306 296 308 303 307 312 325 349 328 286 235 250 273 277 287 294 291 282 153 207 209 207 207 210 205 211 201 196 197 198 198 199 200 200 198 199
198 205 207 205 228 229 255 294 288 294 304 309 305 331 345 6 33 232 261 273 284 298 307 308 343 234 185 214 212 210 205 207 209 200 199 199 203 202 204 203 208 206 209
208 216 217 209 226 227 254 306 297 313 315 321 318 322 314 333 343 337 321 309 312 320 330 340 336 220 208 230 216 216 210 207 209 209 202 205 207 206 206 207 212 210 217
217 210 215 213 231 252 259 297 301 328 352 3 349 358 11 352 352 359 345 330 319 323 340 12 45 118 178 223 219 210 211 208 207 210 207 210 215 212 210 212 217 216 218
214 211 211 220 237 256 252 281 282 325 356 359 9 30 9 355 5 21 31 29 3 355 19 41 69 96 171 199 204 209 213 211 209 207 212 215 217 216 221 220 222 222 222
213 217 222 232 242 253 255 274 261 291 331 345 7 73 46 314 330 3 38 30 25 27 38 71 77 95 127 165 192 199 211 213 209 211 216 218 220 227 225 222 226 227 225
216 221 227 232 232 241 250 252 269 264 280 300 336 25 33 24 69 338 1 20 26 28 10 59 70 80 87 98 121 174 202 210 217 217 215 220 222 223 225 230 233 233 231
220 224 227 232 235 243 250 244 259 267 271 271 295 330 344 335 304 134 292 334 8 25 14 158 98 88 86 78 77 83 142 214 221 227 228 226 226 223 224 229 232 232 232
223 226 230 235 238 239 244 251 256 259 264 276 283 282 272 250 240 186 230 286 300 9 34 70 326 89 97 96 86 96 106 124 230 232 235 240 240 238 236 237 238 230 230
226 229 233 235 238 241 244 251 254 259 258 264 266 270 273 269 289 313 280 314 340 5 36 41 16 212 260 287 341 333 278 251 246 275 254 250 251 250 249 246 244 237 230
229 235 232 233 238 242 244 248 249 247 250 259 265 277 283 286 274 291 303 274 343 346 8 51 66 78 74 295 333 303 280 256 275 279 276 276 262 253 252 256 254 247 242
243 239 236 233 237 240 246 246 246 250 251 253 265 276 265 280 287 285 299 297 187 215 289 226 217 42 45 271 306 331 359 243 273 309 291 280 280 275 263 259 257 257 254
241 236 234 235 238 241 245 248 247 250 250 254 256 262 260 272 281 280 281 265 239 223 207 213 193 7 320 323 297 259 245 225 283 315 297 282 285 280 277 274 271 263 258
236 239 241 239 242 244 250 247 245 245 248 252 251 256 256 259 255 260 259 251 230 216 205 219 199 178 90 55 36 13 228 251 285 279 281 298 9 346 334 327 322 307 268
235 237 240 241 243 247 255 251 242 239 239 241 242 248 252 246 254 256 248 237 230 234 233 214 201 199 176 81 32 38 48 13 337 271 264 303 334 327 324 326 317 300 303
236 238 239 241 244 247 251 251 241 238 241 242 242 243 249 251 249 242 235 223 221 228 237 223 214 224 238 266 298 312 320 312 310 290 286 289 308 316 309 310 310 295 281
236 239 240 244 247 248 248 247 243 239 242 244 245 245 249 249 249 245 227 213 210 211 209 205 209 228 247 275 297 291 298 297 298 291 284 280 289 293 290 299 304 300 290
239 243 245 248 251 250 248 244 243 242 244 246 246 248 251 252 253 249 233 214 206 200 199 197 205 205 224 246 268 289 295 302 299 296 283 280 289 273 285 289 297 306 310
237 241 244 244 247 246 247 248 246 246 247 247 247 251 251 250 250 249 246 224 218 205 199 197 207 206 223 242 271 285 291 302 305 298 284 290 286 286 286 290 301 296 309
235 238 242 244 244 247 248 249 248 247 247 247 248 253 252 254 251 246 233 220 215 215 226 225 216 223 226 248 279 288 290 291 287 295 295 294 294 292 293 288 285 290 298
233 237 239 243 245 247 249 250 249 246 244 250 252 254 255 254 246 239 216 197 191 196 214 224 209 218 251 267 287 295 305 307 305 297 295 260 284 286 285 287 290 294 297
234 239 242 243 242 248 250 251 243 239 236 245 251 253 253 254 254 240 203 186 155 138 133 157 250 254 190 166 71 319 304 322 300 276 284 279 279 301 301 296 291 289 289
239 239 240 244 247 252 250 248 242 234 229 236 236 220 228 222 89 228 172 165 121 129 158 180 169 169 186 245 325 325 329 319 309 304 268 334 312 319 308 294 292 285 288
Height
818 819 819 820 819 819 818 817 816 813 812 810 809 809 810 809 809 809 810 811 810 811 813 815 817 818 819 823 827 831 834 837 840 843 847 849 850 853 853 856 860 862 865
817 818 818 818 818 817 816 815 815 812 811 808 806 807 808 807 808 808 808 808 807 808 807 809 808 810 814 820 824 828 831 835 839 842 845 847 850 852 852 855 858 861 864
817 817 817 817 816 816 815 815 813 811 809 806 806 806 805 804 805 806 806 805 805 805 804 805 802 794 809 817 821 827 831 834 836 839 841 844 847 850 852 853 856 859 861
815 816 816 816 815 814 814 813 812 811 809 806 806 806 805 803 802 805 806 805 805 804 804 803 803 788 803 812 818 824 827 832 834 836 840 842 845 848 850 852 854 857 859
814 815 815 815 814 814 814 813 812 812 809 807 806 806 805 805 805 807 808 807 805 805 804 804 806 803 806 807 810 816 823 827 832 834 836 839 842 845 848 851 852 855 857
813 813 813 814 814 814 814 813 812 812 810 808 807 806 806 806 806 806 807 807 805 805 804 803 803 804 807 805 809 813 819 824 829 833 835 837 839 842 844 847 849 853 855
811 811 811 812 813 813 813 813 812 811 811 810 808 805 805 805 806 806 806 806 806 805 805 803 802 803 806 807 809 812 816 820 825 830 833 836 838 841 842 845 847 850 852
808 809 810 812 812 812 812 812 812 812 812 811 810 810 812 808 806 807 806 806 805 805 805 805 805 805 806 807 809 811 815 819 823 826 830 833 835 838 840 843 845 848 850
806 807 809 810 810 810 811 812 813 813 813 812 811 811 814 818 812 808 808 807 804 803 804 806 807 807 808 808 809 812 814 817 820 824 826 829 832 834 837 839 842 845 847
803 805 806 807 808 809 810 812 812 813 814 814 813 812 813 814 816 815 807 807 806 805 805 806 808 809 809 809 810 810 812 815 818 821 823 825 828 831 833 835 838 841 844
800 802 803 805 807 808 809 810 812 813 813 813 814 814 813 813 813 814 814 808 806 806 805 807 808 809 809 810 810 811 812 813 815 818 820 822 824 825 828 830 833 836 839
797 799 801 803 805 807 808 809 811 811 812 813 814 813 813 813 811 812 814 812 811 809 807 807 809 809 809 809 810 810 811 812 813 814 816 818 821 823 825 827 829 831 833
793 795 797 800 802 804 806 808 809 810 811 811 811 811 811 811 812 812 812 812 811 808 808 807 806 807 809 809 809 810 811 812 812 812 813 814 817 818 821 823 825 826 828
789 791 793 796 798 801 804 806 808 808 809 810 810 810 810 810 810 810 810 810 811 809 808 808 807 806 807 807 808 809 808 809 810 811 812 812 813 814 816 818 820 821 823
786 788 790 792 795 798 800 802 804 806 807 807 808 808 808 808 808 808 807 807 808 813 811 807 808 807 807 807 807 806 805 806 807 808 809 809 810 811 813 814 814 815 816
783 784 786 789 792 794 797 798 800 802 803 804 805 805 805 805 806 806 806 805 804 805 809 805 807 807 806 806 805 804 805 805 806 806 806 807 807 808 808 808 808 808 808
779 781 783 785 788 790 793 794 795 798 799 801 801 801 801 802 802 802 802 802 803 803 805 805 805 805 806 805 803 802 802 804 804 804 804 805 805 806 805 805 804 802 800
773 776 779 780 783 785 787 788 790 793 795 796 797 797 797 798 798 799 799 800 801 803 803 803 803 804 803 802 803 802 802 803 803 802 802 802 802 801 800 799 799 798 797
768 770 773 775 777 780 782 783 784 787 789 791 792 792 791 792 791 791 793 795 797 799 801 802 803 803 802 800 799 800 800 800 800 800 799 798 797 796 794 793 792 791 790
762 764 766 768 771 775 777 778 780 782 783 784 786 786 786 787 788 788 788 787 790 792 795 797 799 799 800 802 800 798 797 797 796 796 795 793 791 790 789 787 785 784 783
756 757 760 762 765 768 769 771 774 776 777 779 780 781 781 782 782 782 782 783 781 781 783 786 790 792 793 795 797 798 796 794 792 790 788 788 787 785 783 782 781 779 778
748 751 752 754 756 758 760 763 766 769 770 772 773 773 774 775 777 780 782 780 778 778 779 781 784 786 787 790 789 789 789 791 789 787 784 783 782 779 778 777 776 775 774
741 742 743 747 748 748 751 753 757 761 762 763 764 765 767 770 774 776 774 782 783 788 786 785 786 786 786 788 788 788 787 787 785 782 780 778 776 774 773 773 771 769 768
736 736 737 739 740 740 743 746 749 753 753 753 756 758 761 762 765 768 775 775 777 780 784 788 789 788 786 785 786 785 787 786 785 782 779 773 771 768 768 767 766 764 761
729 729 729 731 732 731 734 736 740 744 745 745 747 752 755 756 758 764 771 776 776 781 784 786 788 790 789 787 785 784 783 782 781 781 777 773 768 765 762 760 758 757 755
720 721 722 723 723 723 726 729 733 737 741 742 748 746 748 750 759 764 746 767 775 782 782 779 786 785 788 787 782 782 781 781 780 777 773 773 768 767 758 752 752 752 750